Location: Black Creek
(40.9000°S, 175.5500°E)
Time: 10:43:31
(UTC+00:00)

BlueWalker 3 - Visible Passes

Search period start: 10 October 2024 00:00
Search period end: 20 October 2024 00:00
Orbit: 473 x 485 km, 53.2° (Epoch: 09 October)

Date Brightness Start Highest point End Pass type
(mag) Time Alt. Az. Time Alt. Az. Time Alt. Az.
10 Oct 3.4 08:23:53 10° SSW 08:27:07 25° SSE 08:27:32 25° SE visible
10 Oct 5.2 10:01:35 10° WSW 10:01:43 11° WSW 10:01:43 11° WSW visible
11 Oct 3.6 07:55:33 10° SSW 07:58:43 23° SSE 08:00:18 18° ESE visible
11 Oct 4.5 09:33:12 10° SW 09:34:29 20° WSW 09:34:29 20° WSW visible
12 Oct 3.7 07:27:12 10° SSW 07:30:16 22° SSE 07:33:04 11° ESE visible
12 Oct 3.3 09:04:48 10° SW 09:07:15 37° WSW 09:07:15 37° WSW visible
13 Oct 3.8 06:58:49 10° SSW 07:01:47 21° SSE 07:04:44 10° ESE visible
13 Oct 1.9 08:36:22 10° SW 08:40:01 80° SW 08:40:01 80° SW visible
14 Oct 1.8 08:07:54 10° SW 08:11:45 80° SE 08:12:49 45° ENE visible
15 Oct 1.9 07:39:26 10° SW 07:43:16 71° SE 07:45:38 21° ENE visible
15 Oct 4.6 09:18:38 10° W 09:19:50 14° WNW 09:19:50 14° WNW visible
16 Oct 2.1 07:10:56 10° SW 07:14:44 62° SE 07:18:30 10° ENE visible
16 Oct 4.1 08:49:50 10° W 08:52:20 17° NW 08:52:42 17° NW visible
17 Oct 4.1 08:21:04 10° W 08:23:50 19° NW 08:25:37 14° NNW visible
18 Oct 3.9 07:52:18 10° WSW 07:55:18 22° NW 07:58:16 10° N visible
19 Oct 3.8 07:23:33 10° WSW 07:26:43 25° NW 07:29:52 10° N visible
